Total_Precipitation_Accumulation
1.53 1.56 1.58 1.61 1.73 1.91 2.07 2.15 2.11 2.17 2.22 2.18 2.02 1.94 1.90 1.84 1.86 1.91 1.87 1.90 1.95 1.96 1.95 1.90 1.77 1.67 1.73 1.75 1.76 1.80 1.87 2.00 1.94 1.42 1.19 1.17 1.22 1.18 1.17 1.09 1.02 0.99 0.95
1.59 1.58 1.59 1.58 1.56 1.65 1.76 1.94 2.00 2.09 2.10 2.16 2.09 1.96 1.87 1.79 1.75 1.77 1.74 1.69 1.69 1.73 1.74 1.78 1.73 1.62 1.60 1.62 1.66 1.61 1.57 1.59 1.68 1.51 1.20 1.10 1.08 1.02 1.02 1.02 0.98 0.94 0.87
1.58 1.63 1.60 1.54 1.48 1.46 1.54 1.70 1.78 1.87 1.93 1.97 2.06 1.99 1.85 1.77 1.69 1.66 1.62 1.60 1.56 1.52 1.55 1.61 1.65 1.67 1.64 1.59 1.56 1.52 1.48 1.48 1.55 1.58 1.30 1.10 1.04 1.00 1.01 0.98 0.94 0.93 0.87
1.52 1.62 1.64 1.60 1.54 1.46 1.49 1.55 1.65 1.71 1.79 1.79 1.85 1.95 1.96 1.89 1.78 1.69 1.63 1.58 1.56 1.50 1.48 1.54 1.57 1.55 1.50 1.45 1.45 1.41 1.42 1.47 1.49 1.56 1.47 1.28 1.14 1.03 1.08 1.09 1.07 0.97 0.93
1.40 1.56 1.61 1.66 1.72 1.73 1.64 1.57 1.56 1.59 1.69 1.72 1.74 1.82 1.88 1.92 1.88 1.79 1.69 1.65 1.63 1.61 1.54 1.50 1.52 1.57 1.50 1.43 1.41 1.39 1.41 1.50 1.57 1.62 1.53 1.34 1.20 1.12 1.07 1.00 1.05 1.04 1.01
1.18 1.34 1.45 1.55 1.67 1.83 1.85 1.77 1.69 1.61 1.62 1.70 1.72 1.77 1.81 1.84 2.05 2.02 1.82 1.73 1.68 1.59 1.50 1.39 1.39 1.49 1.49 1.49 1.46 1.42 1.46 1.56 1.64 1.68 1.57 1.36 1.10 1.01 1.03 1.18 1.31 1.45 1.39
1.02 1.08 1.22 1.40 1.50 1.63 1.83 1.92 1.84 1.77 1.78 1.80 1.83 1.88 1.88 1.97 2.08 1.92 1.84 1.67 1.61 1.50 1.38 1.29 1.25 1.24 1.33 1.24 1.30 1.36 1.36 1.45 1.51 1.51 1.46 1.19 1.04 0.99 1.20 1.42 1.47 1.49 1.32
1.02 1.06 1.18 1.29 1.40 1.56 1.75 1.89 1.96 1.94 1.99 1.98 1.95 1.96 1.94 1.96 2.01 1.87 1.84 1.64 1.53 1.40 1.28 1.17 1.14 1.12 1.15 1.25 1.32 1.38 1.28 1.19 1.16 1.10 1.08 1.03 1.02 1.10 1.34 1.61 1.75 1.83 1.60
0.99 1.05 1.11 1.22 1.32 1.46 1.64 1.79 1.90 1.95 2.01 2.04 1.93 1.84 1.77 1.77 1.82 1.69 1.68 1.59 1.57 1.44 1.31 1.23 1.18 1.10 1.22 1.40 1.46 1.47 1.30 1.12 1.10 1.14 1.18 1.18 1.24 1.30 1.40 1.69 1.97 2.15 1.94
0.99 1.03 1.06 1.15 1.25 1.34 1.48 1.63 1.78 1.87 1.89 1.85 1.78 1.68 1.59 1.56 1.67 1.57 1.56 1.55 1.57 1.45 1.34 1.29 1.36 1.28 1.36 1.47 1.41 1.42 1.33 1.12 1.04 1.04 1.06 1.07 1.00 1.03 1.24 1.39 1.83 2.32 2.06
0.97 1.02 1.05 1.10 1.20 1.28 1.30 1.37 1.48 1.56 1.59 1.57 1.49 1.48 1.47 1.48 1.52 1.45 1.43 1.44 1.47 1.48 1.42 1.32 1.29 1.48 1.54 1.55 1.43 1.23 1.22 1.28 1.18 1.08 1.05 1.03 1.01 1.00 1.03 1.07 1.35 2.06 2.43
0.95 1.00 1.05 1.09 1.11 1.15 1.17 1.18 1.21 1.25 1.32 1.37 1.31 1.29 1.35 1.40 1.43 1.44 1.47 1.49 1.51 1.43 1.36 1.23 1.26 1.50 1.50 1.45 1.34 1.34 1.43 1.36 1.17 1.19 1.19 1.14 1.08 1.05 1.06 1.09 1.14 1.34 1.69
0.95 0.97 1.00 1.00 1.02 1.07 1.12 1.13 1.16 1.19 1.23 1.31 1.25 1.21 1.22 1.22 1.29 1.43 1.45 1.51 1.53 1.39 1.32 1.39 1.41 1.43 1.37 1.32 1.36 1.37 1.32 1.22 1.27 1.35 1.28 1.15 1.07 1.08 1.13 1.21 1.23 1.25 1.34
0.91 0.93 0.94 0.92 0.94 0.98 1.05 1.11 1.18 1.24 1.23 1.23 1.19 1.15 1.14 1.11 1.07 1.16 1.29 1.37 1.43 1.40 1.38 1.41 1.38 1.34 1.33 1.33 1.39 1.33 1.21 1.23 1.38 1.42 1.30 1.18 1.16 1.22 1.25 1.31 1.48 1.52 1.63
0.81 0.83 0.85 0.87 0.90 0.98 1.03 1.12 1.21 1.26 1.33 1.34 1.22 1.14 1.14 1.16 1.15 1.26 1.30 1.27 1.35 1.43 1.43 1.31 1.24 1.23 1.26 1.25 1.21 1.21 1.21 1.27 1.34 1.30 1.33 1.33 1.33 1.41 1.47 1.54 1.71 1.81 1.85
0.78 0.79 0.82 0.83 0.88 0.95 1.02 1.09 1.22 1.28 1.30 1.31 1.30 1.21 1.14 1.20 1.25 1.28 1.29 1.33 1.42 1.48 1.42 1.32 1.24 1.16 1.16 1.17 1.15 1.15 1.17 1.21 1.29 1.41 1.46 1.47 1.52 1.60 1.69 1.72 1.86 1.98 1.89
0.77 0.80 0.82 0.83 0.88 0.93 0.95 0.99 1.08 1.14 1.15 1.18 1.22 1.21 1.19 1.20 1.20 1.23 1.30 1.34 1.31 1.30 1.21 1.17 1.15 1.12 1.11 1.11 1.14 1.17 1.19 1.19 1.32 1.53 1.65 1.69 1.75 1.80 1.86 1.91 1.92 1.91 1.76
0.70 0.77 0.77 0.81 0.87 0.89 0.93 0.95 0.95 0.97 1.00 1.04 1.09 1.14 1.15 1.16 1.16 1.20 1.29 1.29 1.26 1.21 1.11 1.08 1.06 1.05 1.09 1.15 1.19 1.27 1.32 1.33 1.43 1.58 1.68 1.73 1.83 1.97 2.01 1.92 1.82 1.77 1.67
0.63 0.68 0.70 0.74 0.79 0.84 0.86 0.91 0.92 0.90 0.91 0.91 0.91 1.00 1.10 1.12 1.14 1.19 1.22 1.16 1.18 1.17 1.10 1.07 1.04 1.06 1.12 1.18 1.23 1.31 1.43 1.54 1.61 1.76 1.80 1.81 1.88 2.06 2.04 1.82 1.67 1.59 1.54
0.62 0.68 0.67 0.68 0.72 0.76 0.80 0.83 0.86 0.85 0.84 0.83 0.86 0.93 0.98 1.03 1.03 1.05 1.09 1.13 1.16 1.18 1.15 1.14 1.11 1.11 1.17 1.22 1.27 1.38 1.52 1.58 1.67 1.77 1.81 1.83 1.89 1.99 1.94 1.69 1.50 1.47 1.38
0.60 0.63 0.65 0.63 0.67 0.73 0.77 0.81 0.84 0.85 0.84 0.80 0.83 0.94 1.07 1.07 1.04 1.01 1.05 1.09 1.14 1.18 1.21 1.24 1.23 1.24 1.26 1.31 1.37 1.43 1.54 1.61 1.68 1.80 1.83 1.78 1.76 1.71 1.54 1.47 1.41 1.39 1.40
0.55 0.56 0.56 0.58 0.62 0.68 0.74 0.78 0.81 0.83 0.82 0.80 0.79 0.87 0.98 0.91 0.89 0.92 0.97 1.00 1.02 1.07 1.14 1.25 1.28 1.28 1.40 1.58 1.74 1.81 1.73 1.66 1.66 1.80 1.83 1.69 1.58 1.48 1.42 1.45 1.43 1.44 1.45
0.51 0.52 0.53 0.55 0.59 0.66 0.70 0.69 0.72 0.76 0.78 0.77 0.76 0.77 0.79 0.81 0.81 0.83 0.86 0.88 0.90 0.93 0.98 1.09 1.20 1.20 1.25 1.49 1.77 2.12 2.24 2.00 1.86 1.94 2.00 1.82 1.60 1.50 1.51 1.53 1.44 1.44 1.40
0.49 0.51 0.53 0.55 0.57 0.60 0.62 0.64 0.67 0.70 0.72 0.71 0.70 0.69 0.71 0.75 0.76 0.75 0.77 0.79 0.81 0.83 0.87 0.97 1.08 1.12 1.17 1.40 1.63 1.81 1.97 2.10 2.28 2.27 2.18 2.14 1.86 1.63 1.58 1.54 1.41 1.33 1.33
0.49 0.51 0.53 0.55 0.56 0.57 0.59 0.61 0.62 0.64 0.66 0.66 0.66 0.66 0.66 0.68 0.69 0.69 0.70 0.72 0.74 0.75 0.74 0.81 0.96 1.08 1.17 1.32 1.51 1.66 1.78 1.93 2.06 2.11 2.06 1.98 1.78 1.58 1.55 1.52 1.40 1.31 1.29
0.47 0.49 0.51 0.53 0.54 0.54 0.56 0.58 0.59 0.61 0.63 0.64 0.64 0.65 0.67 0.67 0.67 0.68 0.69 0.70 0.72 0.70 0.67 0.70 0.77 0.92 1.07 1.22 1.31 1.48 1.64 1.61 1.46 1.42 1.65 1.78 1.68 1.48 1.47 1.55 1.43 1.37 1.33